Theta_e
324 322 322 323 321 319 321 324 320 324 324 323 326 324 326 327 329 325 326 329 329 326 317 324 329 331 332 329 330 328 324 319 315 318 318 316 316 316 315 317 330 328 328 324 321 314 314 315 315
328 322 322 323 321 320 320 316 322 322 327 327 327 328 330 329 331 328 327 325 326 322 314 321 328 331 331 329 332 329 324 318 331 328 323 320 318 316 316 315 327 328 323 320 317 314 314 315 315
329 323 321 318 318 322 322 319 320 325 328 327 330 329 329 328 330 325 322 320 318 318 313 321 329 333 330 328 331 328 321 316 330 323 326 322 316 314 314 314 321 326 317 318 317 315 315 314 315
331 324 320 319 322 321 319 322 323 327 327 326 329 329 329 326 329 324 318 315 315 313 312 320 328 331 331 326 330 327 322 316 331 330 323 318 314 313 313 313 319 322 319 317 317 316 315 314 315
329 322 319 320 321 320 317 322 325 325 325 327 328 326 328 326 326 323 317 313 312 311 312 317 325 329 330 328 329 326 321 319 331 331 322 314 313 313 313 313 316 318 315 316 316 315 315 315 315
323 319 321 321 320 318 317 324 325 324 325 326 327 327 325 326 326 322 317 313 311 311 312 313 321 325 328 327 327 324 319 316 324 327 315 314 313 313 313 313 314 315 315 315 316 316 315 315 315
320 319 321 321 320 321 317 321 324 324 324 327 329 326 326 326 325 324 320 317 311 313 312 311 315 322 325 327 325 320 314 312 314 318 314 314 313 313 313 313 313 314 315 315 315 316 316 315 315
319 319 321 321 322 322 318 318 319 324 324 326 328 327 325 324 324 325 323 318 312 314 314 312 312 316 320 323 320 317 313 311 310 314 313 314 313 313 313 313 313 314 314 314 315 316 316 316 315
325 323 325 323 323 322 319 317 319 319 324 326 329 328 326 324 322 325 324 320 313 313 315 313 311 312 315 317 317 315 312 310 311 313 313 314 314 313 313 313 313 313 314 314 315 315 316 316 315
324 326 324 321 319 320 321 320 320 318 319 324 327 328 327 327 323 323 322 320 316 313 315 314 313 312 312 314 314 313 312 311 312 313 313 313 314 314 313 313 313 313 313 314 314 315 315 316 316
323 325 322 320 323 325 324 321 322 318 317 320 323 326 327 328 326 323 324 322 319 315 314 315 314 313 313 313 313 312 313 312 313 313 313 313 314 314 314 313 313 313 313 314 314 314 315 315 316
323 323 323 325 326 325 323 325 321 322 323 322 318 318 321 327 327 325 323 322 322 320 316 314 315 315 314 313 313 313 313 313 313 313 313 313 314 314 314 314 314 314 314 314 314 314 315 315 316
322 323 324 325 324 324 323 323 324 320 327 327 320 317 319 324 327 326 326 326 325 323 320 316 315 315 315 315 315 315 314 314 313 313 313 314 314 314 314 314 314 314 314 314 314 314 315 315 315
322 323 323 323 324 323 321 322 321 325 327 325 326 320 318 321 324 326 326 326 326 324 322 320 316 315 316 315 316 316 315 315 315 314 314 314 315 314 314 314 314 314 314 314 314 314 315 315 315
323 324 323 322 322 323 324 323 320 324 325 326 326 327 316 319 325 325 326 325 325 324 325 322 321 316 315 316 316 316 316 316 316 315 315 315 315 316 316 315 315 314 314 315 315 315 315 315 315
325 324 328 323 323 324 323 327 322 325 323 320 320 322 319 316 320 324 326 326 327 327 324 323 323 323 317 315 316 316 316 316 316 316 316 316 315 316 317 316 316 316 316 315 315 315 316 316 316
325 325 327 325 324 324 322 324 322 324 322 323 323 322 322 320 316 319 322 325 326 327 326 323 323 325 323 319 316 316 316 316 316 317 316 316 316 316 317 317 317 317 317 317 317 317 318 318 318
322 325 323 324 322 324 323 324 322 324 323 320 319 320 321 320 319 318 318 322 325 326 327 325 324 324 325 325 321 317 316 317 317 316 317 317 317 317 318 318 318 319 319 319 319 319 319 320 320
320 322 323 323 321 324 324 323 322 322 323 322 323 324 325 322 322 323 321 318 321 326 327 326 325 324 325 325 325 323 320 318 317 317 317 317 317 317 318 319 319 319 319 319 320 320 320 320 320
321 323 322 320 322 324 322 323 321 321 322 323 323 322 322 324 326 325 324 321 318 319 323 325 325 325 324 323 323 325 323 322 321 320 319 319 319 318 318 319 319 320 320 320 320 320 321 321 321
320 322 322 323 322 322 323 324 321 320 321 321 322 322 323 323 325 327 326 324 322 321 319 319 322 325 324 323 324 326 326 326 324 323 322 321 321 321 320 320 320 321 321 321 321 321 321 321 321
321 317 318 320 322 323 321 323 319 319 320 320 322 322 322 323 323 325 327 326 325 323 323 318 318 319 323 325 324 325 324 323 321 321 322 322 322 323 323 322 321 321 322 322 322 322 322 322 321
321 319 319 320 322 321 321 324 319 319 321 320 320 322 322 323 324 323 324 326 327 326 326 324 324 320 318 322 324 324 325 324 325 324 323 322 322 322 322 322 323 322 322 322 323 322 323 323 322
319 320 320 321 322 324 321 321 320 319 319 319 319 320 321 322 323 323 324 322 324 327 328 326 324 324 321 319 321 323 322 323 325 325 324 323 321 321 321 321 323 323 323 322 323 323 323 323 324
319 321 323 323 324 323 318 322 323 318 317 316 318 319 321 322 321 322 323 323 324 326 328 327 325 325 325 322 319 320 320 320 323 323 323 323 322 321 319 320 321 322 323 322 322 322 323 323 324
320 321 322 324 321 318 315 321 319 316 317 318 319 319 320 319 320 319 319 320 323 325 326 326 326 326 325 325 320 318 318 319 321 323 323 323 323 322 321 320 320 320 321 322 322 322 322 323 324
316 321 318 321 307 316 316 314 313 312 313 313 315 318 317 317 318 320 322 321 322 319 319 321 320 322 324 325 325 319 317 317 319 320 323 324 325 325 325 324 323 322 320 320 322 322 322 322 323
317 315 321 319 322 321 316 315 318 315 315 314 312 313 313 312 312 316 317 316 318 320 317 318 319 320 323 324 324 323 322 321 319 319 322 323 324 325 325 325 325 324 321 320 321 322 322 323 322
319 320 320 318 319 322 315 315 309 314 313 312 309 311 311 311 310 312 311 312 315 318 317 316 318 318 319 320 321 322 322 321 319 318 320 322 324 324 325 326 326 324 322 320 321 323 323 323 323
316 317 318 321 318 316 312 318 311 307 308 308 309 313 317 315 309 310 310 312 312 315 318 318 315 318 318 318 319 320 321 320 320 320 320 323 324 324 325 326 326 325 324 322 323 324 325 326 326
Wind_Speed
12 12 13 6 4 4 2 0 1 3 3 3 10 5 4 2 4 2 6 16 16 14 15 17 15 14 12 8 6 5 7 6 9 11 12 13 13 13 15 17 19 16 18 18 15 18 18 19 20
12 10 7 3 4 3 3 2 3 2 3 10 9 5 2 2 3 2 15 16 17 15 16 18 16 14 12 9 7 5 6 8 12 12 12 13 13 14 14 15 18 15 15 16 16 18 17 17 18
11 8 5 4 2 2 2 2 2 3 10 4 4 3 2 2 4 6 12 16 18 17 17 19 17 14 12 11 8 5 6 9 11 7 12 12 12 12 12 14 16 14 16 16 14 16 16 16 17
10 4 5 3 1 2 2 1 4 9 2 2 2 1 3 5 4 10 14 16 17 17 18 20 19 16 13 12 10 7 5 7 13 8 10 10 10 11 11 12 14 13 15 14 14 14 14 14 15
7 4 3 3 2 3 3 3 13 5 1 2 4 2 3 5 7 14 16 16 16 17 18 20 19 17 16 14 12 7 5 10 14 11 9 8 8 10 10 11 12 11 13 13 13 13 13 13 13
5 3 4 1 2 4 4 4 6 3 1 3 2 2 2 4 9 16 16 16 15 14 17 19 19 18 17 15 12 9 8 8 13 11 9 7 7 9 10 10 11 11 11 12 11 11 10 11 11
7 3 3 2 2 4 4 4 1 3 3 4 2 2 3 7 12 14 16 15 16 16 15 17 19 19 17 15 12 11 9 8 10 11 9 7 7 8 10 9 10 10 9 9 10 9 9 9 9
5 6 3 2 1 1 8 9 7 5 3 3 5 3 2 8 14 16 17 16 17 17 17 16 19 20 18 17 14 12 10 10 10 8 8 8 7 7 9 9 9 9 8 8 8 7 7 7 7
6 4 4 5 3 4 7 9 10 10 6 5 7 8 5 5 16 18 20 20 21 21 19 18 18 20 19 18 15 13 12 10 10 9 9 9 8 8 9 9 9 9 8 7 6 5 5 4 4
3 4 10 9 9 5 6 3 10 6 13 8 13 16 14 8 17 22 24 25 25 25 23 21 19 19 20 19 17 15 14 13 12 11 10 10 9 9 10 10 10 9 8 7 6 5 3 3 2
4 4 2 8 10 9 5 3 5 2 5 10 14 16 19 16 18 23 25 26 26 25 25 23 22 20 20 20 18 17 15 15 14 13 11 11 11 10 10 9 9 8 7 7 6 5 4 2 2
3 7 9 7 14 7 7 7 5 13 20 18 21 25 21 24 23 23 27 27 28 28 26 25 24 22 21 20 19 17 17 17 15 13 13 12 12 11 11 10 10 9 9 8 8 7 6 5 5
4 4 8 19 10 19 10 14 14 13 25 23 16 21 24 24 29 27 27 29 28 30 28 27 26 25 23 22 21 19 18 17 15 15 14 13 12 12 12 11 11 11 10 9 9 8 8 7 7
6 8 7 6 12 13 6 12 7 15 23 23 21 23 21 25 28 30 32 31 31 29 31 29 28 27 26 25 24 21 19 18 18 17 15 14 14 14 13 13 12 12 11 11 11 10 10 9 9
3 3 3 9 7 5 8 10 10 32 27 27 26 25 22 26 28 32 33 31 31 30 30 31 30 29 29 27 26 25 22 21 21 19 18 16 16 15 14 14 13 13 13 13 12 11 11 11 10
2 1 7 2 12 7 9 15 10 20 24 25 21 21 23 25 29 31 32 33 35 32 30 31 32 32 31 31 29 27 26 24 24 22 21 19 18 18 16 16 15 14 15 15 13 13 12 12 11
4 7 5 6 9 3 7 2 7 12 20 25 27 27 25 26 27 29 32 33 34 33 31 32 32 34 33 32 33 31 29 28 27 25 25 23 22 21 20 18 17 16 17 16 15 15 15 13 13
7 4 4 6 6 7 8 14 15 29 22 24 27 26 26 27 28 30 31 33 33 34 33 32 33 34 35 34 35 34 34 32 31 30 29 27 26 25 24 22 20 20 21 20 18 18 17 15 14
5 6 11 3 6 6 11 13 13 25 20 23 31 35 40 38 34 32 30 33 34 36 37 37 36 36 36 39 39 38 40 37 36 35 33 31 30 28 27 26 24 24 24 22 20 20 20 18 17
11 14 15 5 4 5 7 18 12 18 24 26 32 33 39 46 46 39 35 33 36 37 39 40 39 39 37 39 40 40 39 39 38 36 36 34 34 32 32 30 28 27 27 26 25 24 23 22 20
14 16 9 6 2 4 7 21 15 16 34 32 39 43 39 45 48 51 44 41 37 39 40 41 42 41 39 41 41 41 41 41 42 42 41 39 37 36 35 32 32 30 29 29 27 26 26 25 23
19 14 18 15 6 11 5 16 6 6 14 12 27 34 40 48 53 49 53 48 47 42 37 43 41 43 43 43 45 46 46 45 44 42 41 41 40 40 37 35 35 34 32 32 30 28 28 27 27
6 5 11 12 12 10 14 8 6 11 16 16 18 36 42 46 47 49 55 58 56 46 43 44 42 44 45 46 46 46 47 47 45 42 41 41 41 42 41 40 39 38 36 35 33 32 31 30 30
3 5 9 8 7 10 25 14 21 14 16 13 16 32 36 39 40 42 45 50 55 51 48 47 47 46 45 46 47 48 47 47 48 47 46 43 40 37 40 43 43 41 39 38 36 34 33 33 32
13 7 4 5 5 9 3 10 22 8 10 9 14 27 32 28 30 35 39 39 44 50 51 48 48 47 46 46 49 48 47 46 46 48 47 43 40 39 37 40 42 43 41 41 38 37 36 35 35
7 8 4 4 4 3 2 10 7 8 20 27 25 33 38 34 32 28 32 30 36 41 43 47 51 53 51 47 46 47 46 48 47 49 45 41 41 37 34 35 36 37 38 38 39 40 38 38 37
6 11 11 5 3 2 5 8 7 9 13 12 24 31 34 31 30 29 34 36 33 33 37 42 42 45 48 49 47 47 47 47 47 46 42 42 39 37 36 34 33 32 32 33 34 36 37 38 38
5 6 5 6 8 6 6 6 8 7 13 10 10 12 22 23 24 24 28 32 31 34 30 32 35 37 45 48 49 48 46 45 44 46 44 41 38 37 35 34 32 32 31 30 31 33 33 35 35
7 4 4 3 3 5 3 6 8 13 9 8 8 15 20 26 28 22 22 28 29 30 26 25 31 33 38 45 46 47 47 45 43 44 44 42 38 34 33 32 31 30 28 29 31 32 32 32 31
13 9 9 3 4 4 2 12 2 7 8 6 11 15 15 26 25 22 22 21 17 23 32 26 26 31 33 36 40 42 42 42 41 41 42 42 39 35 33 31 30 29 28 29 30 31 32 31 29
Wind_Direction
333 334 342 354 49 60 24 5 237 144 153 170 146 153 202 168 166 194 169 159 165 167 161 159 156 157 155 142 141 147 124 108 109 112 111 110 108 104 103 106 108 104 100 105 99 90 87 86 81
343 343 357 27 75 51 300 279 211 205 141 128 132 128 141 273 186 192 153 162 163 167 164 162 161 164 159 156 157 149 119 113 123 118 112 111 111 106 104 107 111 109 104 104 97 92 89 87 85
349 354 32 82 96 139 245 243 212 138 135 144 140 172 186 254 213 165 160 163 160 164 166 166 165 170 169 170 176 161 136 131 125 115 121 116 109 110 107 111 116 112 105 102 97 91 87 89 86
1 26 61 74 15 266 222 255 157 147 232 202 226 165 208 201 178 174 165 166 163 164 167 173 173 175 178 184 182 172 164 133 128 144 134 124 112 109 113 112 120 120 112 107 99 90 88 88 88
23 41 59 79 320 277 276 276 157 159 191 187 183 257 237 217 216 180 172 168 170 167 170 175 179 180 185 188 188 192 186 143 145 160 139 128 122 114 117 122 127 127 117 112 108 96 94 92 92
68 49 48 15 302 283 313 167 150 183 198 175 235 216 258 207 189 179 176 172 170 174 172 178 182 188 191 193 196 199 201 189 162 159 149 139 128 128 126 128 133 131 123 120 112 104 100 92 90
114 86 144 219 255 309 35 331 287 205 205 244 227 175 280 198 174 180 176 179 177 178 181 184 187 191 193 195 198 202 204 203 176 172 164 152 143 138 133 134 135 138 136 129 121 115 105 95 92
122 106 84 252 220 282 13 360 360 286 268 254 206 226 285 195 180 180 184 188 189 188 186 192 196 197 197 198 201 207 211 200 186 181 167 164 153 150 143 139 144 149 148 142 130 122 107 98 95
139 80 159 191 182 265 355 22 1 328 290 258 231 237 264 206 196 190 193 194 199 197 196 197 202 203 203 204 207 208 211 204 185 183 181 177 167 162 155 154 159 159 161 156 147 142 128 109 99
150 151 206 181 175 200 304 327 335 346 327 283 264 258 250 238 210 210 207 206 205 203 203 200 204 207 206 205 207 210 206 201 196 194 192 185 180 173 171 171 172 173 171 171 174 175 166 132 119
152 186 186 248 201 223 200 285 250 255 291 286 286 292 262 237 219 219 224 223 221 212 208 207 205 208 211 209 208 209 208 203 201 198 199 197 193 189 187 185 184 183 185 187 195 204 209 208 210
170 235 193 241 229 218 221 201 220 232 258 276 299 284 282 248 231 232 232 230 226 223 218 213 211 210 213 213 212 212 211 207 205 203 204 206 201 199 198 196 196 196 198 200 205 217 234 245 242
172 231 230 244 260 239 249 230 222 221 265 274 283 292 271 263 247 239 240 234 231 229 225 221 217 216 216 217 216 215 214 214 211 211 211 210 211 205 205 207 207 208 210 213 218 227 240 248 250
194 227 237 252 254 256 264 270 203 253 258 250 264 278 276 262 256 244 237 238 236 234 229 226 223 222 221 223 223 222 221 218 218 217 218 216 211 212 208 213 215 218 218 222 227 231 240 250 254
202 268 286 246 237 217 268 273 219 252 260 261 254 258 272 264 252 250 246 246 244 239 231 228 227 227 228 227 229 227 226 226 226 224 222 221 218 217 216 216 220 221 225 228 232 238 243 250 256
196 189 249 208 190 229 163 265 270 257 248 246 255 254 261 263 257 255 251 247 247 240 238 232 230 230 231 232 233 233 231 230 231 229 228 228 226 224 224 224 222 222 229 233 235 240 244 249 256
184 254 243 291 195 136 182 263 279 287 245 252 248 249 254 260 258 257 255 250 247 247 241 237 233 232 234 235 236 236 237 236 235 234 232 232 232 231 231 231 228 229 233 237 240 243 247 250 255
219 226 216 215 221 195 221 239 270 272 271 265 268 253 251 252 254 255 258 256 249 247 244 241 236 236 234 236 237 238 239 238 237 236 236 235 235 234 233 233 232 233 237 239 242 247 251 253 255
281 238 238 219 221 214 240 251 244 267 270 261 265 266 259 251 246 254 260 257 253 248 244 242 238 235 232 232 233 234 237 237 237 236 237 237 236 236 237 237 235 235 240 244 248 250 253 255 256
228 249 262 263 210 202 279 268 246 261 260 254 263 262 262 263 252 251 250 254 251 251 248 245 242 237 235 235 236 237 239 241 242 242 241 238 237 238 238 239 240 240 242 244 245 248 252 254 253
236 240 250 262 321 250 293 282 266 250 254 254 249 253 254 255 257 248 247 245 248 248 246 246 245 242 239 238 237 236 240 242 242 241 241 239 239 240 240 240 243 242 243 246 248 250 253 256 255
234 222 242 258 272 264 137 284 250 271 270 236 242 250 249 251 256 250 246 242 241 242 247 247 247 246 244 239 239 237 238 239 243 243 243 243 242 243 242 243 243 244 245 247 249 250 252 254 253
236 161 222 229 239 263 244 266 295 217 250 260 240 253 253 255 256 253 248 244 237 239 245 249 249 248 246 243 241 242 240 244 247 249 249 248 246 244 245 245 245 245 246 247 249 249 249 252 253
108 235 273 264 261 227 243 219 268 241 246 256 255 254 263 267 263 261 256 250 248 239 244 247 248 247 246 246 242 241 243 244 245 247 248 248 249 247 245 246 246 247 248 249 249 252 251 253 253
191 197 241 232 203 250 210 207 245 297 283 235 250 265 272 270 270 266 255 250 246 240 241 247 247 245 245 245 242 241 244 246 246 248 248 249 250 250 246 244 244 246 248 249 249 250 252 252 253
202 207 219 208 213 285 37 227 260 239 250 260 270 274 273 273 281 274 263 256 253 250 247 246 246 245 242 242 244 243 243 243 244 246 248 248 249 251 253 251 249 248 248 249 249 250 252 253 253
181 220 221 271 161 245 216 284 270 246 270 284 264 266 271 286 288 274 272 269 260 247 248 244 246 241 238 240 242 240 242 242 244 247 248 248 249 250 252 252 252 251 249 248 248 249 250 253 255
184 134 165 202 247 242 250 254 237 298 278 280 298 303 317 318 310 295 290 280 266 253 256 249 243 240 238 240 240 240 242 245 245 244 245 247 249 249 251 251 251 251 249 248 247 247 248 251 254
171 191 192 184 188 224 288 252 207 224 247 246 286 344 338 336 334 326 292 286 260 246 249 250 242 241 239 237 238 240 240 241 242 243 244 245 249 249 249 251 251 252 250 246 244 246 249 251 254
211 188 205 232 202 226 208 264 354 241 233 267 295 305 342 345 343 342 330 305 276 259 241 250 246 242 241 240 237 237 240 241 242 243 242 244 246 249 249 251 250 249 248 245 244 246 249 252 252